CAPE
2034 2068 2292 2328 2211 2244 2310 2126 2045 1983 1981 1909 1923 1908 1834 1705 1630 1520 1582 1484 1470 1246 1310 1568 1760 1698 1637 1641 812 1691 1644 1835 1524 1549 1417 1536 1874 1852 1656 1324 1214 1297 1164 1132 1079 916 862 1202 919 892 1207 1364 1481 1584 1644 1747 1663 1537 1552 1390 1133 1167 1261 1574 1331 1069 1609 1893 1865 1537 965 1251 1176 550 291 68 54 411 834 839 643 705 492 330 110
2559 2456 2241 2130 2137 2194 2244 2156 1993 1883 1837 1794 1926 1837 1942 1939 1785 1742 1570 1616 1427 1244 1474 1268 1914 1840 1291 1784 1831 1205 1119 1812 1699 1631 1472 1504 1790 1822 1815 1643 1357 1236 1274 1044 1102 1038 1046 1286 1199 1229 1365 1406 1471 1549 1783 1808 1683 1609 1624 1406 1247 1150 1714 1712 1425 1098 1194 1902 1640 1169 1521 1370 1173 448 244 168 59 0 206 307 563 413 184 90 80
2594 2384 2310 2337 2132 2002 2037 1757 1519 1538 1738 1777 1724 1767 1774 1821 1613 1767 1690 1479 1458 1428 1636 1701 1871 1084 1908 1840 1632 1762 1847 1816 1839 1834 1817 1750 1908 2033 1901 1687 1563 1513 1450 1098 980 1089 1190 1426 1338 1392 1507 1540 1580 1726 1025 1240 1576 1432 1535 1511 1501 1433 1688 1988 1605 1269 1088 1049 1370 1418 1236 1456 1076 743 370 186 85 8 0 22 196 149 152 104 4
1367 1582 1746 1616 1615 1774 1778 1686 1379 1276 1410 1612 1675 1646 1719 1835 1797 1816 1593 1562 1222 1478 1691 2064 1942 2041 1862 1703 1689 1772 1889 1752 1889 2021 1905 1849 1857 1782 1812 1878 1822 1627 1386 1143 1048 1005 946 955 1261 1567 1656 1627 1595 1000 672 1141 1607 1427 1511 1482 1843 1775 1738 1944 2154 1594 1483 1269 1489 1360 1460 1118 1377 821 348 212 82 0 4 5 148 41 3 24 49
1326 1288 1174 1321 1233 1486 1634 1509 1469 1452 1433 1433 1476 1479 1526 1542 1453 1632 1705 1554 1390 1495 1617 1875 2068 2093 2057 1738 1723 1811 1973 2008 2102 1970 1709 1542 1360 1356 1506 1478 1518 1487 1342 1232 1125 1124 1005 1030 1025 1115 1691 1677 1716 1574 1430 1498 1364 1380 1528 1540 1642 1832 1891 1829 2074 2022 1499 1421 1571 1624 1230 1369 1572 1119 364 191 42 43 119 0 5 0 4 6 15
1258 1188 1501 1545 1486 1430 1666 1820 1842 1784 1620 1583 1547 1567 1560 1500 1411 1380 1494 1754 1659 1420 1514 1578 1744 1918 2049 1888 1769 1866 1901 1943 1778 1675 1389 1632 1801 1659 1638 1736 1678 1477 1356 1295 1296 1148 1160 1102 1175 1122 1456 1548 1587 1644 1562 1500 1420 1390 1485 1492 1553 1724 1868 1958 2002 1997 1858 1374 1578 838 911 676 1272 1084 512 188 115 66 9 2 0 0 2 2 0
1304 1214 1094 1182 1323 1496 1695 1726 1961 1936 1715 1648 1683 1580 1547 1684 1545 1528 1549 1554 1470 1505 1503 1466 1506 1697 1938 1961 1853 1883 1858 1906 1900 1691 1581 1722 1728 1883 2110 2086 1786 1631 1636 1588 1564 1416 1265 1224 1358 1626 1612 1568 1519 1288 1365 1547 1496 1504 1497 1490 1692 1681 1852 1938 1864 1997 1893 1524 1575 1238 663 1050 1203 913 548 275 150 41 20 4 0 0 4 2 0
462 880 817 1104 1118 1421 1729 1729 1712 1733 1635 1604 1722 1715 1612 1546 1572 1600 1540 1597 1559 1440 1464 1446 1512 1497 1839 1924 2095 2066 1918 1800 1577 1606 1754 1978 2088 2244 2389 2405 2203 1988 1859 1772 1684 1678 1720 1648 1625 1729 1726 1688 1681 1712 1503 1225 1106 832 1049 1567 1788 1740 1860 1826 1894 1804 1840 1651 1502 1526 822 912 1071 732 527 404 240 238 114 22 6 0 34 19 0
99 32 816 1127 1083 1259 1433 1622 1610 1577 1448 1416 1445 1470 1445 1536 1637 1708 1737 1603 1539 1602 1598 1527 1550 1587 1735 1840 1849 1985 1890 1936 1722 1846 1772 1974 2246 2323 2411 2342 2374 2352 2326 2164 2095 2064 2046 2041 1953 1924 1862 1700 1472 1476 1302 1415 1448 1011 1757 1725 1709 1873 1958 1772 1828 1592 1633 1662 1513 1549 1032 1102 1281 1272 612 481 446 387 191 58 13 5 10 7 1
44 61 286 668 948 918 1148 1647 1627 1532 1455 1563 1573 1446 1499 1510 1510 1587 1576 1578 1585 1595 1579 1526 1588 1550 1623 1832 1896 1962 1952 2019 1722 1696 1852 2074 2168 2339 2484 2526 2453 2394 2363 2340 2271 2167 2174 2253 2180 1985 1887 1669 1471 1129 1132 1074 1051 1605 1960 1906 1837 1702 1138 1792 1661 1633 1443 1378 1344 1322 857 825 994 1332 994 852 516 266 168 130 30 10 2 9 4
25 116 157 158 527 944 1002 1069 1646 1526 1546 1519 1359 1370 1181 1331 1360 1481 1591 1581 1618 1564 1596 1620 1516 1655 1760 1876 1960 2046 2116 2091 1384 1401 1624 1675 1982 2224 2394 2426 2379 2232 2043 1962 1938 2071 2244 2241 2401 2122 1882 1738 1574 1182 1150 1123 1214 1224 1047 1068 929 991 1569 1934 1788 1770 1510 1303 1232 1225 1324 1360 1256 1478 1403 976 564 312 205 172 74 36 4 3 12
1 5 26 16 144 579 790 919 816 1157 1280 1390 1405 1342 1393 1242 1398 1445 1365 1475 1550 1628 1658 1596 1526 1670 1869 1966 2070 2012 2040 1678 1361 1318 1339 1505 1674 2393 2370 2262 2347 2185 1992 1885 1868 1925 1947 2144 2178 2294 2075 2181 2140 1510 1250 1219 1167 1092 1014 1154 1238 1221 1334 2056 2080 979 1181 1459 1351 1727 1401 1411 1428 1508 1492 1084 738 535 245 117 112 58 11 0 4
0 0 0 0 2 129 134 273 687 786 660 1014 968 1153 1180 1605 1685 1532 1524 1502 1288 1556 1623 1685 1649 1638 1852 2105 2191 2112 2184 1608 1404 1284 1296 1316 1431 1594 2367 2521 2383 2336 2248 2043 1892 1832 1940 1979 2086 2178 2235 1879 1798 1445 1609 1448 1296 1189 1043 857 847 797 963 1148 1281 1178 1342 1175 1477 1126 1120 1393 1206 1312 1450 1160 898 914 361 142 188 66 29 0 3
0 0 0 0 1 22 32 41 85 253 549 524 579 717 736 838 1458 1634 1538 1620 1357 1483 1577 1339 1606 1733 1858 1954 2082 2245 2358 1754 1425 1326 1260 1268 1274 1215 2001 2501 2565 2460 2386 2301 2134 1991 2022 2014 1956 2116 2340 2256 2079 2226 2303 1510 1645 1302 1173 1056 1122 966 753 651 672 909 1029 1333 1616 1461 1618 1491 1143 1351 1329 1101 1251 823 452 196 216 118 54 23 6
36 1 0 0 0 0 10 16 9 16 78 214 414 431 589 802 689 799 1414 1551 1503 1526 942 1104 1562 1686 1760 1729 1769 1792 2214 1625 1631 1466 1363 1268 1166 1109 1755 2263 2489 2522 2496 2516 2396 2286 2153 2149 2162 2185 2274 2448 2442 2263 2495 2532 2365 1583 1433 1690 1656 1697 1640 1417 1146 1161 1057 1064 1593 1055 922 1672 1728 1649 1861 1578 1636 992 563 518 315 182 93 46 24
0 0 0 0 0 1 1 0 0 0 0 4 74 228 330 393 476 510 514 748 1222 1527 1752 1711 1674 1678 1622 1666 1728 1688 1884 1498 1434 1354 1289 1218 1117 1087 1355 1720 2155 2542 2612 2609 2671 2470 2307 2270 2282 2113 2142 2184 2040 1882 2042 2532 2614 2347 2190 2154 2037 1821 1809 1483 1417 1360 2103 2510 1646 1183 1172 2185 1959 1497 1752 1762 1529 1440 522 344 282 195 85 55 37
0 0 0 0 0 0 1 7 7 0 0 0 0 1 4 13 120 382 391 438 471 519 1172 1370 1701 1822 1698 1551 1417 976 1133 1489 1203 1155 1196 1194 1175 1121 1325 1563 1873 2261 2530 2704 2664 2637 2534 2392 2339 2252 2221 2197 2062 1848 1731 1796 2525 2468 2398 2316 2245 2217 1872 1682 877 803 739 823 1032 1199 1228 1353 1153 953 1103 996 785 837 910 518 408 360 67 64 12
0 0 0 0 0 6 4 1 0 0 0 0 0 0 0 0 0 0 5 138 304 325 416 370 726 1306 1570 1590 1552 1536 1146 981 975 924 1048 1186 1162 1251 1399 1438 1827 1858 2285 2554 2617 2606 2638 2330 2257 2386 2426 2499 2139 1934 1770 1629 2249 2198 2317 2313 2355 2269 2112 2005 1549 798 651 528 754 933 998 1050 986 778 600 446 408 477 1186 392 373 415 115 60 7
1 0 0 0 2 9 3 6 2 0 0 0 0 0 0 0 0 0 0 0 0 0 0 122 440 561 620 1036 744 877 1232 1198 876 863 849 1036 1197 1176 1177 1527 1626 1675 1996 2170 2380 2419 2544 2280 2030 2200 2458 2490 2140 1961 1725 1667 2260 2336 2041 2230 2136 2302 2327 2138 1940 1229 834 652 614 612 750 836 804 767 686 542 446 147 953 749 462 347 69 50 3
0 9 13 9 0 0 0 0 0 0 0 0 0 0 0 0 0 0 0 0 0 0 0 0 2 210 286 421 543 837 983 1308 896 696 761 820 958 996 1080 1067 1259 1759 1921 1962 2085 2289 2305 2451 2141 1706 1718 1844 2116 2094 1867 1609 2170 2305 2307 1983 1954 2027 1559 1882 1991 1612 984 942 1154 1017 1039 966 715 728 788 669 632 515 614 889 632 281 85 88 12
4 3 11 33 30 17 10 0 0 0 0 0 0 0 0 0 0 0 0 0 0 0 0 0 0 0 21 76 318 459 492 621 707 452 666 787 806 872 989 963 957 848 1206 1600 1630 1883 2070 2108 2406 1913 1674 1554 1611 1898 1890 1737 1584 2259 2437 2348 2082 1787 1298 1104 1204 954 1537 1259 1400 1604 1461 1600 1233 1158 1024 666 581 568 455 559 1032 532 163 66 39
12 19 19 26 23 30 33 36 18 2 0 0 0 0 0 0 0 0 0 0 0 0 0 0 0 0 0 0 4 179 480 163 236 139 189 638 713 723 751 702 574 662 774 839 972 1512 1820 2051 2248 1815 1579 1576 1464 1403 1464 1639 1599 1439 2049 1395 1230 1199 1247 1176 973 865 1399 1715 1588 1170 1034 1416 1602 1077 908 846 614 486 569 502 741 976 687 148 45
6 24 32 45 57 67 62 93 103 43 18 2 0 0 0 0 0 0 0 0 0 0 0 0 0 0 0 4 0 0 87 446 58 543 0 0 148 445 582 567 571 548 734 814 762 857 1243 1599 1753 1244 1348 1372 1396 1350 1300 1308 1340 1329 1333 1405 1426 1424 1207 1133 905 1011 1716 1085 928 673 1571 1392 1560 1385 1100 1037 714 709 687 768 766 958 952 332 115
0 19 85 95 77 82 119 191 78 52 58 30 1 0 0 0 0 0 0 0 0 0 0 0 0 0 0 0 0 0 0 14 27 3 389 0 0 0 0 403 523 612 643 658 752 623 635 882 923 895 1111 1140 1203 1236 1233 1199 1192 1194 1152 1153 1174 1194 1163 1101 1118 1046 999 904 1171 1629 1574 1415 1196 762 821 886 1131 859 986 979 890 893 730 567 184
10 100 132 183 160 158 89 32 23 26 93 75 36 2 0 0 0 0 0 0 0 0 0 0 0 0 0 0 0 0 0 0 60 283 49 0 0 0 0 0 0 288 537 586 582 691 718 696 712 808 921 1019 1078 1080 1112 1110 1123 1083 1062 1083 1136 1100 1102 1150 1171 992 934 894 1191 903 1425 1303 1070 877 1079 972 786 959 1139 990 950 906 706 522 441
0 0 0 0 6 34 21 6 1 1 5 11 30 12 0 0 0 0 0 0 0 0 0 0 0 0 0 0 0 0 0 0 0 235 5 21 0 0 0 0 0 0 0 86 320 447 533 630 621 729 836 886 914 894 919 974 940 877 912 867 951 1010 1015 1006 950 932 1013 1050 1630 1063 875 1292 1114 1093 1007 1090 1317 1323 1031 1010 1088 947 598 287 286
0 0 0 0 0 0 0 0 0 0 16 6 0 0 0 0 0 0 0 0 0 0 0 0 0 0 0 0 0 0 0 0 0 0 0 37 106 348 0 0 0 0 0 0 0 44 248 326 439 539 599 700 778 785 707 627 628 655 659 676 730 841 958 953 863 979 997 1317 999 808 921 1195 1230 1131 1218 1270 1326 1365 1274 1091 977 771 555 248 153
0 0 0 0 0 0 0 0 0 0 0 0 0 0 0 0 0 0 0 0 0 0 0 0 0 0 0 0 0 0 0 0 0 3 0 0 0 0 0 0 0 23 2 35 54 4 4 93 175 340 422 469 476 464 467 467 534 605 591 630 671 758 866 938 906 836 964 886 997 1074 920 1038 1073 1098 1221 1410 1048 749 907 877 838 632 446 317 102
0 0 2 0 0 0 0 0 0 0 0 0 0 0 0 0 0 0 0 0 0 0 0 0 0 0 0 0 0 0 0 0 21 0 0 0 0 0 0 0 0 0 0 0 0 0 1 2 1 1 140 433 495 499 432 398 482 587 632 622 656 737 822 819 850 839 794 775 871 960 866 988 1183 1273 1340 996 698 659 441 674 758 771 186 244 133
0 0 0 0 0 0 0 0 0 0 0 0 0 0 0 0 0 0 0 0 0 0 0 0 0 0 0 0 0 0 0 0 0 0 0 0 0 0 0 0 0 0 0 0 0 3 0 1 1 1 28 108 333 454 498 517 644 675 671 662 681 708 782 833 778 715 627 636 1010 909 770 848 1187 1259 1046 938 997 699 431 521 760 637 149 201 146
0 0 0 0 0 0 0 0 0 0 0 0 0 0 0 0 0 0 0 0 0 0 0 0 0 0 0 0 0 0 0 0 0 0 0 0 0 0 0 0 0 0 1 0 0 1 0 0 0 0 0 25 111 340 424 487 592 620 654 672 676 700 735 768 772 692 565 441 575 749 568 522 723 863 694 800 660 666 475 436 542 647 343 139 147
0 0 0 0 0 0 0 0 0 0 0 0 0 0 0 0 0 0 0 0 0 0 0 0 0 0 0 0 0 0 2 0 0 0 0 0 0 0 0 0 0 0 0 0 1 0 0 0 0 0 43 92 79 164 273 388 471 524 530 492 481 546 634 677 690 664 582 503 448 518 652 625 555 538 565 568 414 592 550 402 324 348 295 264 209
0 0 0 0 0 0 0 0 0 0 0 0 0 0 0 0 0 0 0 0 0 0 0 0 0 0 0 0 0 0 0 0 0 0 0 0 0 0 0 0 0 0 0 0 1 0 0 0 0 0 19 112 190 280 363 438 527 501 531 464 354 401 442 509 558 558 594 638 526 555 588 743 523 326 379 338 411 643 546 326 237 206 235 344 244
0 0 0 0 0 0 0 0 0 0 0 0 0 0 0 0 0 0 0 0 0 0 0 0 0 0 0 0 0 0 0 0 0 0 0 0 0 0 0 0 0 0 0 0 0 0 0 0 0 0 2 67 219 257 244 334 440 432 463 523 503 427 187 141 191 411 516 605 633 570 560 646 501 547 680 787 722 693 726 342 331 232 323 342 262
0 0 0 0 0 0 0 0 0 0 0 0 0 0 0 0 0 0 0 0 0 0 0 0 0 0 0 0 0 0 0 0 0 0 0 0 0 0 0 0 0 0 0 2 0 0 0 0 0 0 0 7 76 209 316 426 458 487 459 492 529 513 492 263 78 101 495 541 600 649 650 700 1018 571 624 741 899 692 790 670 393 316 384 331 283
0 0 0 0 0 0 0 0 0 0 0 0 0 0 0 0 0 0 0 0 0 0 0 0 0 0 0 0 0 0 0 0 0 0 0 0 0 0 0 0 0 0 0 0 0 0 0 0 0 0 0 0 7 140 260 357 484 543 612 484 322 468 432 458 249 130 470 591 606 635 610 705 672 528 586 729 824 682 692 613 414 260 244 370 352
0 0 0 0 0 0 0 0 0 0 0 0 0 0 0 0 0 0 0 0 0 0 0 0 0 5 0 0 0 0 0 0 0 0 0 0 0 0 0 0 0 0 0 0 0 0 0 0 0 0 0 0 0 33 114 253 415 519 418 487 549 438 453 436 444 175 293 506 651 653 654 648 756 979 845 713 589 587 607 696 476 159 190 285 162
0 0 0 0 0 0 0 0 0 0 0 0 0 0 0 0 0 0 0 0 0 0 0 0 0 0 0 0 0 0 0 0 0 0 0 0 0 0 0 0 0 0 0 0 0 0 0 0 0 0 0 0 0 0 47 128 206 361 508 560 445 372 288 223 188 144 73 383 588 717 754 678 870 1030 620 768 669 450 251 253 311 403 130 41 197
10 1 0 0 0 0 0 0 0 0 0 0 0 0 0 0 0 0 0 0 0 0 0 0 0 0 0 0 0 8 0 0 0 0 0 0 0 0 0 0 0 0 0 0 0 0 0 0 0 0 0 0 0 12 49 96 165 204 459 566 495 438 365 284 167 125 51 182 404 641 671 634 637 681 843 856 626 504 361 277 270 437 438 212 251
7 9 2 0 0 0 0 0 0 0 0 0 0 0 0 0 0 0 0 0 0 0 0 0 0 0 0 0 0 0 0 0 0 0 0 0 1 4 0 2 1 0 0 0 0 0 0 0 0 0 0 6 18 49 91 148 136 109 315 480 499 488 519 397 237 101 62 27 259 467 592 579 585 667 591 601 471 262 183 128 137 267 552 396 380
11 8 3 0 0 1 3 7 4 0 0 0 0 0 0 0 0 0 0 0 0 0 0 0 0 0 0 0 0 0 2 0 0 0 0 0 0 0 0 2 4 2 0 1 0 0 0 0 0 0 3 10 42 94 154 163 167 262 392 428 492 489 435 392 277 168 137 62 332 487 661 632 491 490 515 480 485 460 350 228 159 156 417 343 506
13 13 11 9 2 6 6 4 3 2 1 0 0 0 0 0 0 0 0 0 0 0 0 0 0 0 0 0 0 0 0 2 2 0 0 0 0 0 0 1 2 0 4 4 8 3 1 0 4 19 46 78 126 166 200 194 225 328 313 420 406 370 253 365 323 232 186 230 478 635 802 762 636 431 446 543 549 447 232 285 339 270 385 280 229
8 5 2 1 1 4 12 10 4 11 9 7 5 2 0 0 0 0 0 0 0 0 0 0 0 0 0 0 2 0 2 1 0 0 0 0 0 0 0 0 1 4 7 10 14 16 14 11 17 24 88 137 228 249 270 321 390 428 376 398 311 297 305 218 272 289 242 344 560 758 762 666 537 490 488 500 429 415 355 269 170 235 224 213 231
12 12 13 9 6 4 6 4 6 6 6 2 3 6 8 6 7 6 3 3 4 5 1 0 0 1 2 4 3 2 4 3 7 8 6 8 9 10 8 2 1 2 5 6 7 10 12 35 53 55 105 160 183 212 209 247 336 382 429 438 350 164 254 189 135 168 148 239 478 607 688 565 392 376 443 501 504 416 469 441 364 186 210 284 250
6 6 4 3 4 2 2 3 2 1 0 0 1 1 4 6 13 8 3 7 6 6 9 11 9 2 2 7 10 2 9 3 2 3 3 3 1 2 1 1 1 0 1 3 3 5 6 6 6 4 4 3 4 10 12 24 50 94 129 244 537 232 132 205 263 327 207 55 62 233 474 572 491 414 422 462 498 527 536 602 549 435 364 366 298
14 20 18 16 10 8 7 7 3 2 4 9 6 7 10 14 16 12 4 6 4 4 14 8 5 2 1 1 0 0 1 0 0 1 2 3 4 5 4 4 4 4 2 2 4 4 4 5 5 6 7 7 6 7 3 1 0 1 1 2 16 136 99 109 109 100 62 30 17 3 149 326 327 314 301 251 228 279 385 424 351 252 299 373 343
9 11 14 10 4 4 9 8 7 5 7 3 2 6 27 41 55 41 11 6 0 1 2 3 2 4 3 1 0 0 1 0 1 2 2 2 3 3 4 3 2 2 5 5 4 6 5 6 7 7 8 7 9 22 12 1 0 0 0 1 0 9 8 45 91 92 44 0 0 0 0 3 179 410 414 378 342 271 205 190 258 322 372 396 403
6 5 7 8 6 6 6 7 7 2 4 5 2 1 0 7 15 14 5 2 2 2 2 2 2 2 1 1 1 1 1 4 3 3 4 2 1 0 1 3 5 4 5 7 7 7 7 7 6 6 4 3 2 1 1 0 0 0 1 1 1 23 0 11 78 113 56 2 72 204 220 250 254 330 353 359 328 228 276 260 258 267 270 302 257
4 3 8 9 10 9 8 8 5 8 8 8 3 3 2 1 1 3 2 3 4 5 5 4 4 3 5 11 16 12 4 2 0 0 0 0 0 0 2 1 2 3 1 0 1 1 0 0 0 1 1 1 2 2 0 0 20 164 183 211 256 267 220 172 101 178 172 213 244 176 100 111 117 124 129 117 118 135 115 89 96 97 132 197 189
5 2 1 1 1 3 3 2 6 10 6 4 4 5 4 3 4 3 4 6 8 8 10 4 8 10 10 7 6 5 7 2 1 12 23 26 32 38 32 9 2 5 2 2 1 0 0 0 0 0 10 1 0 0 48 50 162 188 208 208 219 260 274 238 217 220 149 165 152 52 16 17 23 31 36 35 42 36 24 22 32 51 62 74 102
0 1 3 3 1 2 3 4 4 5 2 8 12 14 13 7 5 5 6 4 3 3 6 6 3 3 4 3 9 25 59 101 154 195 190 226 202 142 133 88 65 30 14 7 5 0 0 0 0 0 1 0 52 131 158 180 175 194 217 232 177 0 96 171 184 188 43 62 50 15 10 16 29 42 45 31 12 3 2 0 0 0 0 7 32
Wind_Speed
33 31 34 35 35 33 29 25 25 26 24 24 24 23 21 17 14 14 14 14 15 16 17 19 20 19 17 15 13 13 12 12 15 16 16 16 18 19 19 18 16 16 16 15 15 16 16 17 17 17 18 16 13 11 11 11 10 10 11 10 11 10 10 10 9 17 15 18 18 17 14 13 12 13 12 nan nan 6 7 8 5 3 2 1 3
32 34 35 35 37 35 30 28 26 26 25 25 22 22 21 18 16 15 15 16 15 14 15 16 18 17 17 16 15 15 12 13 14 14 14 15 17 18 18 17 16 15 15 14 15 16 16 17 16 17 17 15 13 11 11 11 10 10 10 10 10 10 10 11 9 12 15 18 15 13 11 11 12 10 12 11 nan nan 7 8 7 5 4 nan nan
34 35 34 37 39 37 34 30 26 26 26 24 22 20 20 19 17 16 15 16 16 15 14 15 16 14 14 15 16 15 15 15 14 12 12 12 14 15 16 16 16 15 15 14 14 15 16 15 14 16 17 15 13 11 11 9 10 9 9 10 10 11 11 10 11 10 14 14 11 13 11 11 10 10 11 11 nan nan nan nan 9 7 6 2 nan
45 41 38 37 36 37 37 33 28 26 25 26 23 20 19 18 18 16 15 15 15 15 14 14 14 14 13 13 14 16 16 16 15 13 11 11 11 13 15 16 16 16 15 15 14 14 13 13 14 15 16 15 13 13 11 11 11 10 9 10 10 11 11 11 10 11 12 15 10 14 15 14 11 11 9 11 nan nan nan nan 11 nan nan nan nan
39 38 35 28 27 32 34 33 31 29 28 29 26 23 20 19 18 15 13 13 13 15 16 15 14 13 13 12 12 13 15 16 16 15 13 11 10 11 13 15 16 15 14 13 13 13 13 12 13 14 15 13 12 12 13 12 11 10 11 11 11 12 12 11 11 10 11 11 12 21 19 15 9 10 9 10 nan nan 16 nan nan nan nan nan nan
41 35 35 30 28 31 35 35 34 31 30 30 27 24 22 21 20 17 14 11 11 13 15 17 16 13 12 11 10 11 12 14 15 15 14 12 11 11 11 12 13 14 14 12 12 12 12 12 12 12 13 12 11 12 12 11 11 12 11 12 13 13 12 12 12 11 11 11 13 21 11 13 8 8 9 10 11 nan nan nan nan nan nan nan nan
47 42 42 41 38 38 40 39 37 35 34 32 28 25 22 21 20 18 14 10 9 10 12 14 15 14 12 12 11 9 9 11 12 13 13 12 11 10 10 9 10 13 13 11 10 9 10 10 11 12 11 11 10 10 11 12 13 13 13 14 15 14 13 13 13 12 13 13 13 19 13 10 9 8 8 11 12 nan nan nan nan nan nan nan nan
51 50 48 48 44 43 45 46 42 38 36 33 31 28 25 23 22 20 15 12 9 7 8 8 9 12 14 14 12 10 8 8 9 10 10 11 12 11 10 9 10 11 11 9 9 9 10 10 11 10 10 10 9 10 11 13 14 14 14 16 16 16 15 14 14 14 14 13 14 18 16 14 8 8 12 12 13 14 16 nan nan nan nan nan nan
nan nan 50 49 47 47 49 50 47 42 38 36 33 30 26 24 24 23 19 14 11 8 7 6 6 7 11 15 14 11 8 7 7 8 9 9 11 11 10 9 9 10 11 11 10 11 11 10 9 8 8 8 8 9 11 12 13 13 15 17 17 17 16 16 15 15 15 14 14 20 18 13 8 13 11 12 12 14 17 nan nan nan nan nan nan
nan nan 51 49 47 47 52 54 50 47 43 39 36 33 29 27 26 24 20 16 13 11 7 6 6 6 8 13 16 14 10 9 10 11 11 9 9 10 10 10 10 11 12 12 12 10 9 8 7 5 6 6 6 6 10 11 14 17 18 18 18 19 16 16 17 17 16 14 14 17 17 12 9 12 12 11 13 16 18 17 nan nan nan nan nan
nan 50 50 49 49 50 55 56 54 51 48 44 41 38 33 31 30 27 23 19 16 12 8 5 5 5 5 9 15 15 13 11 16 14 11 13 11 9 10 10 11 12 12 11 10 9 7 6 6 5 4 4 4 5 5 6 9 9 15 18 19 16 15 19 19 17 16 15 15 17 17 15 13 12 11 12 13 14 18 18 nan nan nan nan nan
nan nan nan nan 50 53 57 57 56 55 52 48 44 42 38 35 32 29 26 22 19 15 11 8 7 5 4 5 10 14 14 14 18 15 11 7 8 9 10 10 10 10 11 10 9 8 7 6 5 5 2 1 2 5 5 5 5 6 10 13 16 20 24 25 24 19 14 16 16 18 17 15 12 11 12 13 13 14 18 18 17 nan nan nan nan
nan nan nan nan nan 56 60 62 60 57 54 52 49 47 44 40 37 33 29 26 22 18 14 13 11 9 7 5 6 10 11 18 19 16 13 9 5 6 8 9 9 10 10 9 8 8 8 7 6 5 4 4 3 3 6 7 7 5 7 9 13 16 18 20 24 25 26 23 17 18 15 14 10 11 12 12 14 15 18 19 18 nan nan nan nan
nan nan nan nan nan nan nan nan nan 60 56 53 50 50 47 45 41 38 35 29 26 22 19 16 15 13 11 9 8 9 8 17 17 17 14 11 7 6 6 7 9 10 10 10 9 8 8 8 7 6 4 2 0 2 3 6 8 8 7 8 10 11 12 13 17 20 19 18 19 21 17 14 11 11 12 12 14 16 18 20 20 18 nan nan nan
nan nan nan nan nan nan nan nan nan nan nan 55 53 51 49 45 42 40 38 34 30 27 23 19 17 16 15 14 13 12 12 18 15 16 14 12 9 8 6 7 8 10 10 10 9 9 8 8 7 6 5 4 3 2 3 4 7 6 5 6 6 8 11 13 15 16 17 17 18 17 19 15 22 27 21 15 17 18 20 20 21 19 nan nan nan
nan nan nan nan nan nan nan nan nan nan nan nan nan 53 50 48 45 43 40 37 34 31 28 25 22 20 19 18 18 18 16 19 15 14 13 11 13 9 6 6 7 9 9 9 9 10 9 8 8 7 6 4 6 4 1 1 4 4 5 6 5 6 9 12 16 16 18 20 17 14 13 19 25 20 20 18 20 22 22 22 22 22 nan nan nan
nan nan nan nan nan nan nan nan nan nan nan nan nan nan nan nan 48 46 43 40 38 35 32 29 27 25 24 23 22 20 17 20 19 16 14 15 14 8 7 8 8 8 10 11 11 11 10 9 9 9 7 5 9 12 7 3 3 2 2 3 5 6 8 11 21 20 22 27 33 33 27 23 24 24 25 23 19 23 22 21 22 22 nan nan nan
nan nan nan nan nan nan nan nan nan nan nan nan nan nan nan nan nan nan nan 44 42 40 36 34 33 31 30 28 28 26 23 21 21 19 19 19 13 9 9 10 10 11 11 11 12 13 11 10 9 9 9 8 16 15 13 9 4 3 3 2 3 4 6 9 16 21 26 27 28 28 28 25 20 19 20 20 18 21 20 19 21 21 18 nan nan
nan nan nan nan nan nan nan nan nan nan nan nan nan nan nan nan nan nan nan nan nan nan nan 39 37 34 34 33 36 30 27 27 23 23 22 19 16 13 13 13 13 12 12 13 13 14 14 15 13 11 11 13 20 16 16 12 7 7 4 3 2 2 6 7 11 13 15 14 15 19 21 24 21 19 21 19 17 19 17 17 20 19 nan nan nan
nan nan nan nan nan nan nan nan nan nan nan nan nan nan nan nan nan nan nan nan nan nan nan nan nan 39 37 35 34 32 31 30 30 28 26 22 17 20 21 18 15 15 15 15 15 14 14 16 18 14 10 16 21 18 18 14 11 10 8 5 4 5 5 5 8 11 11 11 12 14 14 18 18 18 20 20 18 16 15 15 17 18 nan nan nan
nan nan nan nan nan nan nan nan nan nan nan nan nan nan nan nan nan nan nan nan nan nan nan nan nan nan nan nan 38 37 35 33 35 32 31 26 23 24 22 20 22 22 19 20 18 16 16 17 17 19 17 14 22 21 18 15 13 12 10 8 10 16 21 10 8 7 8 12 11 12 14 15 15 17 17 17 17 16 15 15 16 18 18 nan nan
nan nan nan nan nan nan nan nan nan nan nan nan nan nan nan nan nan nan nan nan nan nan nan nan nan nan nan nan nan 39 40 36 35 37 34 30 28 25 25 27 31 31 28 24 22 20 18 20 19 23 22 20 19 24 21 18 14 13 10 11 12 18 19 12 11 6 6 12 11 9 11 12 12 12 13 13 14 17 16 17 18 18 19 16 nan
nan nan nan nan nan nan nan nan 39 nan nan nan nan nan nan nan nan nan nan nan nan nan nan nan nan nan nan nan nan nan nan 39 nan 36 nan nan 30 28 25 28 32 33 29 26 23 22 24 25 24 32 26 23 22 23 24 22 21 15 10 13 14 17 24 15 17 12 14 9 9 9 11 10 11 13 14 14 16 18 18 18 18 19 19 17 17
nan nan nan nan nan nan 41 40 nan nan nan nan nan nan nan nan nan nan nan nan nan nan nan nan nan nan nan nan nan nan nan nan nan nan 37 nan nan nan nan 28 30 31 31 29 30 30 29 28 34 40 34 24 23 24 23 25 23 17 15 15 18 26 27 21 17 17 17 9 9 10 11 11 12 12 13 14 17 18 20 21 21 20 19 19 19
nan nan 45 44 43 42 nan nan nan nan nan nan nan nan nan nan nan nan nan nan nan nan nan nan nan nan nan nan nan nan nan nan nan 40 nan nan nan nan nan nan nan 34 34 31 31 32 34 35 34 34 36 30 24 24 24 23 19 19 21 20 23 28 24 22 20 21 16 12 14 12 12 14 15 15 17 16 18 20 24 24 23 22 22 21 23
nan nan nan nan nan nan nan nan nan nan nan nan nan nan nan nan nan nan nan nan nan nan nan nan nan nan nan nan nan nan nan nan nan 43 nan nan nan nan nan nan nan nan nan nan 34 35 32 30 31 30 29 31 31 30 27 26 23 21 23 26 28 27 26 26 23 21 20 18 16 17 15 16 17 19 20 21 22 24 28 26 26 26 26 27 28
nan nan nan nan nan nan nan nan nan nan nan nan nan nan nan nan nan nan nan nan nan nan nan nan nan nan nan nan nan nan nan nan nan nan nan nan 43 42 nan nan nan nan nan nan nan nan 36 34 33 32 31 32 31 29 28 29 30 27 27 28 28 29 30 29 27 26 26 24 22 19 18 19 19 21 23 24 26 28 29 29 28 29 30 29 28
nan nan nan nan nan nan nan nan nan nan nan nan nan nan nan nan nan nan nan nan nan nan nan nan nan nan nan nan nan nan nan nan nan nan nan nan nan nan nan nan nan nan nan nan nan nan nan nan 36 36 35 34 32 33 32 32 31 29 27 28 28 30 30 29 28 28 27 26 25 26 22 22 22 24 25 28 29 29 30 29 29 30 30 30 29
nan nan nan nan nan nan nan nan nan nan nan nan nan nan nan nan nan nan nan nan nan nan nan nan nan nan nan nan nan nan nan nan nan nan nan nan nan nan nan nan nan nan nan nan nan nan nan nan nan nan 38 36 34 33 33 34 35 32 28 28 30 31 32 33 30 27 27 29 29 29 27 25 26 28 30 30 30 30 32 32 33 32 33 31 30
nan nan nan nan nan nan nan nan nan nan nan nan nan nan nan nan nan nan nan nan nan nan nan nan nan nan nan nan nan nan nan nan nan nan nan nan nan nan nan nan nan nan nan nan nan nan nan nan nan nan nan 39 36 35 35 35 35 35 33 32 33 33 33 32 29 29 30 30 32 32 32 31 30 32 32 32 33 34 36 36 35 35 34 32 31
nan nan nan nan nan nan nan nan nan nan nan nan nan nan nan nan nan nan nan nan nan nan nan nan nan nan nan nan nan nan nan nan nan nan nan nan nan nan nan nan nan nan nan nan nan nan nan nan nan nan nan nan 38 36 36 36 37 36 34 35 35 34 35 32 29 29 32 32 33 33 34 34 34 35 35 35 35 38 39 39 38 39 35 34 33
nan nan nan nan nan nan nan nan nan nan nan nan nan nan nan nan nan nan nan nan nan nan nan nan nan nan nan nan nan nan nan nan nan nan nan nan nan nan nan nan nan nan nan nan nan nan nan nan nan nan nan nan nan 39 38 38 37 36 36 35 36 36 36 33 31 30 32 33 34 35 35 36 37 37 38 40 40 41 41 42 41 40 38 37 37
nan nan nan nan nan nan nan nan nan nan nan nan nan nan nan nan nan nan nan nan nan nan nan nan nan nan nan nan nan nan nan nan nan nan nan nan nan nan nan nan nan nan nan nan nan nan nan nan nan nan nan 44 42 40 39 38 38 37 36 35 35 35 35 34 35 33 33 32 33 34 35 39 41 41 42 43 44 44 44 43 44 44 43 41 40
nan nan nan nan nan nan nan nan nan nan nan nan nan nan nan nan nan nan nan nan nan nan nan nan nan nan nan nan nan nan nan nan nan nan nan nan nan nan nan nan nan nan nan nan nan nan nan nan nan nan nan nan 44 43 42 41 40 39 38 37 36 36 35 35 35 34 34 34 33 34 34 36 38 42 44 44 46 46 47 45 45 46 46 43 42
nan nan nan nan nan nan nan nan nan nan nan nan nan nan nan nan nan nan nan nan nan nan nan nan nan nan nan nan nan nan nan nan nan nan nan nan nan nan nan nan nan nan nan nan nan nan nan nan nan nan nan nan nan 45 43 42 41 41 40 39 37 37 37 38 nan 35 34 34 33 34 35 36 38 42 44 43 46 49 48 46 44 47 47 45 44
nan nan nan nan nan nan nan nan nan nan nan nan nan nan nan nan nan nan nan nan nan nan nan nan nan nan nan nan nan nan nan nan nan nan nan nan nan nan nan nan nan nan nan nan nan nan nan nan nan nan nan nan nan 47 45 44 43 42 42 40 40 40 38 38 39 36 36 35 34 33 35 36 39 38 39 43 46 49 48 47 46 48 47 45 45
nan nan nan nan nan nan nan nan nan nan nan nan nan nan nan nan nan nan nan nan nan nan nan nan nan nan nan nan nan nan nan nan nan nan nan nan nan nan nan nan nan nan nan nan nan nan nan nan nan nan nan nan nan nan 47 46 46 44 43 43 43 41 40 40 41 41 37 36 34 34 34 35 37 38 42 43 45 47 48 47 47 48 49 46 48
nan nan nan nan nan nan nan nan nan nan nan nan nan nan nan nan nan nan nan nan nan nan nan nan nan nan nan nan nan nan nan nan nan nan nan nan nan nan nan nan nan nan nan nan nan nan nan nan nan nan nan nan nan nan nan 47 47 46 45 44 44 43 43 43 45 40 nan 38 35 35 36 35 36 38 42 42 44 45 47 46 44 45 49 nan 48
nan nan nan nan nan nan nan nan nan nan nan nan nan nan nan nan nan nan nan nan nan nan nan nan nan nan nan nan nan nan nan nan nan nan nan nan nan nan nan nan nan nan nan nan nan nan nan nan nan nan nan nan nan nan nan nan 48 47 47 45 44 46 47 44 42 40 nan 39 37 36 36 37 38 38 41 45 45 46 47 47 45 42 44 47 46
nan nan nan nan nan nan nan nan nan nan nan nan nan nan nan nan nan nan nan nan nan nan nan nan nan nan nan nan nan nan nan nan nan nan nan nan nan nan nan nan nan nan nan nan nan nan nan nan nan nan nan nan nan nan nan 50 49 49 48 48 46 47 48 47 44 42 nan nan 40 38 38 39 40 42 43 44 46 51 49 44 43 42 43 44 46
nan nan nan nan nan nan nan nan nan nan nan nan nan nan nan nan nan nan nan nan nan nan nan nan nan nan nan nan nan nan nan nan nan nan nan nan nan nan nan nan nan nan nan nan nan nan nan nan nan nan nan nan nan nan 50 50 51 51 50 50 49 50 52 50 46 43 44 nan 43 42 42 43 45 46 45 47 47 50 47 44 45 44 45 46 46
nan nan nan nan nan nan nan nan nan nan nan nan nan nan nan nan nan nan nan nan nan nan nan nan nan nan nan nan nan nan nan nan nan nan nan nan nan nan nan nan nan nan nan nan nan nan nan nan nan nan nan nan 50 49 50 50 52 52 53 52 50 49 48 46 46 47 46 47 45 44 45 47 50 46 43 47 48 46 43 42 43 43 41 46 48
nan nan nan nan nan nan nan nan nan nan nan nan nan nan nan nan nan nan nan nan nan nan nan nan nan nan nan nan nan nan nan nan nan nan nan nan nan nan nan nan nan nan nan nan nan nan nan nan nan nan nan 52 52 51 50 50 51 52 53 55 54 51 49 49 49 48 46 48 46 46 46 47 50 47 43 44 44 43 41 42 43 40 42 48 50
nan nan nan nan nan nan nan nan nan nan nan nan nan nan nan nan nan nan nan nan nan nan nan nan nan nan nan nan nan nan nan nan nan nan nan nan nan nan nan nan nan nan nan nan nan nan nan nan nan nan 57 56 55 57 58 59 58 56 54 53 54 53 50 51 48 45 47 49 49 50 47 49 49 49 46 45 44 42 41 40 43 45 46 49 50
nan nan nan nan nan nan nan nan nan nan nan nan nan nan nan nan nan nan nan nan nan nan nan nan nan nan nan nan nan nan nan nan nan nan nan nan nan nan nan nan nan nan nan nan nan nan nan nan nan nan nan nan nan nan nan nan nan nan 58 56 54 54 54 50 49 50 52 nan nan 52 51 51 49 49 48 48 47 45 44 43 44 47 47 48 47
nan nan nan nan nan nan nan nan nan nan nan nan nan nan nan nan nan nan nan nan nan nan nan nan nan nan nan nan nan nan nan nan nan nan nan nan nan nan nan nan nan nan nan nan nan nan nan nan nan nan nan nan nan nan nan nan nan nan nan nan nan 55 nan 62 63 58 nan nan nan nan 49 51 52 52 51 49 48 46 42 42 45 46 46 48 48
nan nan nan nan nan nan nan nan nan nan nan nan nan nan nan nan nan nan nan nan nan nan nan nan nan nan nan nan nan nan nan nan nan nan nan nan nan nan nan nan nan nan nan nan nan nan nan nan nan nan nan nan nan nan nan nan nan nan nan nan nan nan nan nan nan nan nan nan nan nan nan nan 58 58 57 55 53 50 48 47 47 49 50 52 54
nan nan nan nan nan nan nan nan nan nan nan nan nan nan nan nan nan nan nan nan nan nan nan nan nan nan nan nan nan nan nan nan nan nan nan nan nan nan nan nan nan nan nan nan nan nan nan nan nan nan nan nan nan nan nan nan nan nan nan nan nan nan nan nan nan 65 nan nan nan 68 65 61 58 58 57 59 59 58 57 53 51 51 53 54 54
nan nan nan nan nan nan nan nan nan nan nan nan nan nan nan nan nan nan nan nan nan nan nan nan nan nan nan nan nan nan nan nan nan nan nan nan nan nan nan nan nan nan nan nan nan nan nan nan nan nan nan nan nan nan nan nan nan 74 73 69 68 70 73 73 71 69 69 68 69 70 nan 62 59 59 60 60 62 64 65 nan nan nan 53 57 58
nan nan nan nan nan nan nan nan nan nan nan nan nan nan nan nan nan nan nan nan nan nan nan nan nan nan nan nan nan nan nan nan nan nan nan nan nan nan nan nan nan nan nan nan nan nan nan nan nan nan nan nan nan nan nan nan 75 76 76 75 78 78 77 79 80 73 67 65 69 nan nan nan nan nan nan nan nan nan nan nan nan nan nan nan 63
nan nan nan nan nan nan nan nan nan nan nan nan nan nan nan nan nan nan nan nan nan nan nan nan nan nan nan nan nan nan nan 31 31 31 32 33 33 35 37 nan nan nan nan nan nan nan nan nan nan nan nan nan nan 74 74 73 72 74 79 82 83 nan nan 79 76 77 nan nan nan nan nan nan nan nan nan nan nan nan nan nan nan nan nan nan nan
Wind_Direction
284 286 283 286 287 286 284 282 286 291 299 302 302 301 303 308 305 290 277 274 279 285 290 294 298 301 305 308 310 298 288 282 275 271 267 262 254 252 253 258 261 260 259 263 262 265 271 275 278 278 275 275 271 270 270 268 265 262 260 259 259 258 258 253 247 261 255 261 254 244 266 268 271 273 278 nan nan 254 216 213 216 169 150 67 333
278 279 277 278 278 280 282 277 276 285 293 294 294 296 295 291 298 296 287 273 268 277 285 283 287 294 304 309 307 298 300 285 279 273 272 269 264 252 249 252 255 256 256 257 262 260 263 270 274 274 274 275 273 270 260 259 258 256 256 254 252 256 252 247 246 261 279 254 247 248 255 276 271 279 284 282 nan nan 231 212 195 177 175 nan nan
264 267 270 273 272 272 275 274 275 276 281 283 290 291 290 288 287 290 289 273 260 259 270 275 279 289 293 301 306 301 296 289 282 280 275 274 270 259 253 255 256 254 253 253 258 260 264 268 274 275 270 276 274 259 247 250 253 250 252 247 244 250 251 241 242 250 272 275 271 270 275 271 268 282 285 273 nan nan nan nan 197 194 193 171 nan
246 243 246 250 252 259 269 270 272 278 279 276 279 282 279 273 274 277 282 274 261 252 259 264 269 274 282 294 305 306 305 297 292 289 288 281 272 265 257 255 253 251 252 254 255 257 260 266 271 275 276 276 271 259 253 256 248 239 242 242 237 245 245 248 232 237 253 262 259 271 269 272 266 278 272 264 nan nan nan nan 204 nan nan nan nan
263 263 253 241 242 256 267 269 270 272 271 270 275 277 272 264 260 261 262 268 260 250 251 254 259 269 274 286 297 306 310 306 300 295 291 285 278 265 257 253 251 251 251 251 251 255 258 258 264 272 272 269 264 262 258 258 251 242 238 239 237 237 238 239 241 231 239 256 264 246 232 229 250 268 262 257 nan nan 216 nan nan nan nan nan nan
260 256 248 253 263 268 268 267 267 266 265 264 268 269 268 267 266 259 244 248 264 256 249 250 249 256 268 276 283 296 309 311 307 299 296 290 280 267 257 252 248 246 246 244 249 253 254 256 257 260 265 262 259 256 253 261 260 255 249 246 241 239 234 236 235 237 234 243 255 255 249 265 238 256 254 245 239 nan nan nan nan nan nan nan nan
251 249 246 249 259 265 264 261 257 259 259 258 258 257 257 257 261 262 256 249 257 259 253 249 250 247 248 256 265 275 295 307 304 296 293 288 282 274 265 254 245 241 239 240 244 250 253 254 254 257 265 265 262 260 259 261 256 249 251 246 245 241 236 230 233 236 235 237 240 261 260 250 248 244 242 238 233 nan nan nan nan nan nan nan nan
244 245 245 249 253 256 258 253 250 253 257 255 254 250 245 244 248 249 252 255 253 254 254 246 247 247 240 238 242 249 265 284 292 290 286 282 276 273 266 253 247 246 245 244 245 246 251 251 254 259 264 264 257 251 252 254 244 245 248 248 245 245 240 236 235 235 238 236 238 254 259 252 241 232 231 234 233 220 212 nan nan nan nan nan nan
nan nan 242 244 245 249 252 250 247 251 255 254 249 245 241 237 238 241 240 236 236 240 242 250 259 259 240 231 226 226 232 247 257 267 275 278 277 276 270 265 259 258 257 254 253 252 250 250 251 254 255 256 259 243 242 233 246 255 254 251 245 246 243 242 241 239 239 237 240 248 247 244 229 243 229 231 234 224 217 nan nan nan nan nan nan
nan nan 240 239 239 242 246 245 243 246 250 247 241 238 235 233 233 236 240 241 235 227 230 246 268 278 254 231 221 215 213 216 229 235 227 246 267 260 263 263 260 253 250 252 253 251 244 232 226 233 261 274 271 258 247 236 224 217 232 243 239 239 236 242 244 244 242 242 239 248 258 260 245 239 227 228 230 223 222 221 nan nan nan nan nan
nan 242 241 241 241 240 238 238 242 246 245 239 232 230 227 225 227 230 231 234 238 233 221 231 252 272 275 236 224 219 218 220 247 248 239 207 217 249 246 248 252 251 245 239 237 238 224 208 201 230 252 279 290 292 281 251 232 226 224 227 231 235 244 245 240 243 247 242 241 240 244 247 240 237 222 231 232 225 225 226 nan nan nan nan nan
nan nan nan nan 245 244 238 232 236 242 238 230 226 225 225 223 224 225 226 226 225 228 226 217 226 238 233 227 226 224 227 242 265 265 258 252 212 222 236 230 236 240 240 236 228 217 210 207 203 220 238 4 353 315 306 295 273 234 217 218 210 211 220 229 238 232 233 232 232 233 240 247 245 234 228 232 235 230 226 227 229 nan nan nan nan
nan nan nan nan nan 244 243 236 233 233 229 221 218 219 219 221 221 223 223 220 220 220 219 219 220 224 224 214 218 229 230 258 269 272 276 279 277 206 219 222 220 226 229 229 221 214 211 219 223 223 239 358 45 360 332 318 317 308 270 243 227 224 210 214 232 235 218 209 214 237 232 244 249 243 236 237 240 238 231 230 233 nan nan nan nan
nan nan nan nan nan nan nan nan nan 228 220 215 216 216 216 218 221 220 222 220 217 215 216 219 218 220 223 224 222 220 220 257 271 273 273 280 290 259 214 213 207 211 219 222 224 221 223 222 224 236 232 257 7 26 351 322 295 285 274 257 252 255 252 229 212 222 231 224 211 208 223 236 239 245 246 240 245 239 234 233 238 240 nan nan nan
nan nan nan nan nan nan nan nan nan nan nan 216 214 215 215 216 218 222 223 223 222 219 216 216 219 222 223 224 231 231 223 254 272 274 270 273 277 265 245 221 209 209 211 217 226 233 235 232 228 221 233 246 253 311 12 346 314 300 302 289 264 252 250 246 239 227 227 225 223 223 204 215 232 222 215 240 239 230 234 235 240 244 nan nan nan
nan nan nan nan nan nan nan nan nan nan nan nan nan 214 214 214 215 217 220 224 226 225 223 219 219 221 226 229 229 230 231 257 267 274 271 268 268 253 258 243 228 220 221 221 223 229 234 238 237 236 231 233 270 299 300 273 317 323 311 280 261 244 229 223 237 239 224 220 226 230 221 226 244 253 244 239 236 228 233 233 237 242 nan nan nan
nan nan nan nan nan nan nan nan nan nan nan nan nan nan nan nan 213 214 218 220 224 226 228 227 225 225 227 229 236 236 230 245 260 267 271 271 263 249 254 254 243 237 231 230 228 225 228 237 243 244 251 244 279 301 302 242 272 301 282 267 247 231 221 226 243 246 237 231 221 216 220 243 259 258 255 249 239 235 231 237 240 245 nan nan nan
nan nan nan nan nan nan nan nan nan nan nan nan nan nan nan nan nan nan nan 220 223 224 226 229 229 229 230 231 233 235 238 240 253 257 264 273 272 255 251 250 244 239 238 240 234 232 232 237 230 247 253 252 278 292 299 289 270 261 249 252 255 240 234 234 236 233 238 235 232 228 222 229 257 262 260 260 248 236 237 236 244 247 252 nan nan
nan nan nan nan nan nan nan nan nan nan nan nan nan nan nan nan nan nan nan nan nan nan nan 232 232 231 232 232 236 233 236 245 253 259 261 267 259 243 248 246 244 245 242 245 244 237 235 244 248 233 236 248 278 285 290 287 264 250 241 217 211 266 258 262 259 252 243 239 241 239 239 241 246 249 249 253 253 245 242 234 239 245 nan nan nan
nan nan nan nan nan nan nan nan nan nan nan nan nan nan nan nan nan nan nan nan nan nan nan nan nan 233 233 230 234 237 236 239 248 254 258 259 258 239 229 234 238 243 239 238 245 247 243 239 257 271 251 234 259 276 283 283 262 251 239 224 211 225 242 259 279 276 262 256 257 263 263 263 263 261 256 252 247 247 247 241 236 244 nan nan nan
nan nan nan nan nan nan nan nan nan nan nan nan nan nan nan nan nan nan nan nan nan nan nan nan nan nan nan nan 233 234 236 238 250 253 256 257 256 252 240 235 233 231 229 231 228 237 245 245 237 266 276 265 263 264 270 279 272 253 251 243 245 233 226 210 240 256 279 275 268 268 268 270 272 271 266 260 255 250 243 238 237 243 252 nan nan
nan nan nan nan nan nan nan nan nan nan nan nan nan nan nan nan nan nan nan nan nan nan nan nan nan nan nan nan nan 234 241 241 239 252 252 253 254 258 245 240 237 233 225 226 221 219 230 238 237 253 270 271 268 270 271 269 275 253 256 263 260 263 252 218 222 265 295 278 270 268 268 268 268 268 264 264 261 255 248 243 239 243 254 259 nan
nan nan nan nan nan nan nan nan 252 nan nan nan nan nan nan nan nan nan nan nan nan nan nan nan nan nan nan nan nan nan nan 245 nan 242 nan nan 250 253 251 243 237 237 235 236 237 229 222 224 230 230 252 264 267 270 272 276 267 260 259 247 256 256 252 228 224 222 247 246 265 269 265 258 255 255 257 258 259 258 253 249 250 253 258 266 274
nan nan nan nan nan nan 253 256 nan nan nan nan nan nan nan nan nan nan nan nan nan nan nan nan nan nan nan nan nan nan nan nan nan nan 244 nan nan nan nan 252 251 248 240 237 236 240 231 221 225 219 222 242 262 268 270 272 265 271 262 248 242 245 252 252 244 236 241 235 244 261 266 260 249 248 251 253 253 255 258 259 261 267 269 272 275
nan nan 239 244 246 246 nan nan nan nan nan nan nan nan nan nan nan nan nan nan nan nan nan nan nan nan nan nan nan nan nan nan nan 251 nan nan nan nan nan nan nan 254 249 242 241 239 235 228 225 225 222 225 238 254 261 267 273 267 266 262 254 255 265 267 264 260 259 254 245 239 253 258 256 251 246 248 257 261 261 260 264 269 273 275 275
nan nan nan nan nan nan nan nan nan nan nan nan nan nan nan nan nan nan nan nan nan nan nan nan nan nan nan nan nan nan nan nan nan 247 nan nan nan nan nan nan nan nan nan nan 237 232 227 224 222 220 226 236 241 244 247 250 256 256 259 264 261 263 266 266 264 262 261 258 252 247 243 250 256 260 261 259 260 263 266 269 271 273 275 277 277
nan nan nan nan nan nan nan nan nan nan nan nan nan nan nan nan nan nan nan nan nan nan nan nan nan nan nan nan nan nan nan nan nan nan nan nan 246 250 nan nan nan nan nan nan nan nan 244 242 238 232 228 230 236 239 242 248 253 249 249 252 257 260 262 266 265 263 259 257 257 254 249 251 255 262 267 270 269 268 271 274 275 274 274 277 278
nan nan nan nan nan nan nan nan nan nan nan nan nan nan nan nan nan nan nan nan nan nan nan nan nan nan nan nan nan nan nan nan nan nan nan nan nan nan nan nan nan nan nan nan nan nan nan nan 243 241 238 236 238 241 243 245 248 248 247 250 253 254 258 262 263 261 262 262 259 258 254 256 258 259 263 267 270 270 271 272 272 274 274 275 277
nan nan nan nan nan nan nan nan nan nan nan nan nan nan nan nan nan nan nan nan nan nan nan nan nan nan nan nan nan nan nan nan nan nan nan nan nan nan nan nan nan nan nan nan nan nan nan nan nan nan 237 240 242 244 246 248 249 249 249 249 251 252 254 257 261 267 269 264 261 263 265 263 262 262 263 263 265 267 269 267 268 268 271 273 278
nan nan nan nan nan nan nan nan nan nan nan nan nan nan nan nan nan nan nan nan nan nan nan nan nan nan nan nan nan nan nan nan nan nan nan nan nan nan nan nan nan nan nan nan nan nan nan nan nan nan nan 239 241 244 247 250 250 250 250 251 251 251 252 254 257 261 265 266 263 264 264 265 266 267 267 265 264 265 268 269 269 270 273 274 277
nan nan nan nan nan nan nan nan nan nan nan nan nan nan nan nan nan nan nan nan nan nan nan nan nan nan nan nan nan nan nan nan nan nan nan nan nan nan nan nan nan nan nan nan nan nan nan nan nan nan nan nan 239 239 243 247 250 251 251 252 254 253 254 254 255 257 261 264 262 262 263 266 267 268 269 268 267 266 267 268 269 271 276 277 277
nan nan nan nan nan nan nan nan nan nan nan nan nan nan nan nan nan nan nan nan nan nan nan nan nan nan nan nan nan nan nan nan nan nan nan nan nan nan nan nan nan nan nan nan nan nan nan nan nan nan nan nan nan 240 240 243 247 250 250 252 255 257 258 257 258 258 259 261 261 260 259 263 265 267 268 268 268 268 268 269 271 273 275 276 277
nan nan nan nan nan nan nan nan nan nan nan nan nan nan nan nan nan nan nan nan nan nan nan nan nan nan nan nan nan nan nan nan nan nan nan nan nan nan nan nan nan nan nan nan nan nan nan nan nan nan nan 244 242 241 239 240 242 246 249 250 253 257 259 260 259 256 255 260 263 265 264 263 262 263 265 267 270 270 271 271 271 271 272 273 275
nan nan nan nan nan nan nan nan nan nan nan nan nan nan nan nan nan nan nan nan nan nan nan nan nan nan nan nan nan nan nan nan nan nan nan nan nan nan nan nan nan nan nan nan nan nan nan nan nan nan nan nan 243 242 241 239 239 241 244 247 248 251 255 259 260 260 257 259 263 266 268 266 266 265 266 268 270 271 271 273 274 274 273 272 271
nan nan nan nan nan nan nan nan nan nan nan nan nan nan nan nan nan nan nan nan nan nan nan nan nan nan nan nan nan nan nan nan nan nan nan nan nan nan nan nan nan nan nan nan nan nan nan nan nan nan nan nan nan 244 243 242 241 241 242 245 247 249 253 258 nan 262 263 263 266 267 269 270 269 267 265 267 270 271 272 273 274 275 275 272 269
nan nan nan nan nan nan nan nan nan nan nan nan nan nan nan nan nan nan nan nan nan nan nan nan nan nan nan nan nan nan nan nan nan nan nan nan nan nan nan nan nan nan nan nan nan nan nan nan nan nan nan nan nan 244 244 242 242 241 241 243 246 247 249 254 259 262 266 268 269 271 273 272 269 268 271 271 271 272 272 272 272 274 275 271 269
nan nan nan nan nan nan nan nan nan nan nan nan nan nan nan nan nan nan nan nan nan nan nan nan nan nan nan nan nan nan nan nan nan nan nan nan nan nan nan nan nan nan nan nan nan nan nan nan nan nan nan nan nan nan 244 244 243 242 241 241 244 248 249 250 254 260 264 266 270 272 273 273 274 273 273 273 272 270 269 269 270 271 271 270 266
nan nan nan nan nan nan nan nan nan nan nan nan nan nan nan nan nan nan nan nan nan nan nan nan nan nan nan nan nan nan nan nan nan nan nan nan nan nan nan nan nan nan nan nan nan nan nan nan nan nan nan nan nan nan nan 244 245 244 243 243 244 247 249 249 250 257 nan 263 267 270 271 273 275 273 273 277 276 274 271 270 271 271 269 nan 265
nan nan nan nan nan nan nan nan nan nan nan nan nan nan nan nan nan nan nan nan nan nan nan nan nan nan nan nan nan nan nan nan nan nan nan nan nan nan nan nan nan nan nan nan nan nan nan nan nan nan nan nan nan nan nan nan 245 245 245 244 244 246 249 250 252 257 nan 262 264 267 271 273 274 275 278 277 277 276 272 270 270 271 271 269 269
nan nan nan nan nan nan nan nan nan nan nan nan nan nan nan nan nan nan nan nan nan nan nan nan nan nan nan nan nan nan nan nan nan nan nan nan nan nan nan nan nan nan nan nan nan nan nan nan nan nan nan nan nan nan nan 244 244 245 245 245 245 247 250 251 253 256 nan nan 263 264 267 270 272 270 270 275 276 272 271 271 270 270 270 271 271
nan nan nan nan nan nan nan nan nan nan nan nan nan nan nan nan nan nan nan nan nan nan nan nan nan nan nan nan nan nan nan nan nan nan nan nan nan nan nan nan nan nan nan nan nan nan nan nan nan nan nan nan nan nan 243 243 244 245 245 246 247 248 249 251 252 254 256 nan 261 260 260 264 265 267 267 269 269 269 268 267 266 267 266 269 270
nan nan nan nan nan nan nan nan nan nan nan nan nan nan nan nan nan nan nan nan nan nan nan nan nan nan nan nan nan nan nan nan nan nan nan nan nan nan nan nan nan nan nan nan nan nan nan nan nan nan nan nan 243 242 241 241 242 243 244 246 246 248 250 251 252 253 255 256 257 259 260 261 261 265 269 269 270 266 264 266 268 270 272 270 270
nan nan nan nan nan nan nan nan nan nan nan nan nan nan nan nan nan nan nan nan nan nan nan nan nan nan nan nan nan nan nan nan nan nan nan nan nan nan nan nan nan nan nan nan nan nan nan nan nan nan nan 242 242 241 240 240 241 241 242 245 247 247 248 249 250 252 254 255 257 258 260 261 262 266 269 269 268 264 260 262 265 271 270 268 267
nan nan nan nan nan nan nan nan nan nan nan nan nan nan nan nan nan nan nan nan nan nan nan nan nan nan nan nan nan nan nan nan nan nan nan nan nan nan nan nan nan nan nan nan nan nan nan nan nan nan 238 238 240 240 239 237 236 236 238 243 246 246 246 247 248 249 252 254 255 256 258 257 260 263 265 266 269 263 258 258 263 265 265 265 267
nan nan nan nan nan nan nan nan nan nan nan nan nan nan nan nan nan nan nan nan nan nan nan nan nan nan nan nan nan nan nan nan nan nan nan nan nan nan nan nan nan nan nan nan nan nan nan nan nan nan nan nan nan nan nan nan nan nan 237 237 239 244 246 245 246 245 247 nan nan 252 254 254 258 260 263 266 264 260 252 253 258 260 259 260 264
nan nan nan nan nan nan nan nan nan nan nan nan nan nan nan nan nan nan nan nan nan nan nan nan nan nan nan nan nan nan nan nan nan nan nan nan nan nan nan nan nan nan nan nan nan nan nan nan nan nan nan nan nan nan nan nan nan nan nan nan nan 239 nan 243 243 246 nan nan nan nan 253 256 258 257 260 263 262 259 257 256 258 259 262 262 264
nan nan nan nan nan nan nan nan nan nan nan nan nan nan nan nan nan nan nan nan nan nan nan nan nan nan nan nan nan nan nan nan nan nan nan nan nan nan nan nan nan nan nan nan nan nan nan nan nan nan nan nan nan nan nan nan nan nan nan nan nan nan nan nan nan nan nan nan nan nan nan nan 251 252 253 254 254 254 253 255 257 262 259 259 260
nan nan nan nan nan nan nan nan nan nan nan nan nan nan nan nan nan nan nan nan nan nan nan nan nan nan nan nan nan nan nan nan nan nan nan nan nan nan nan nan nan nan nan nan nan nan nan nan nan nan nan nan nan nan nan nan nan nan nan nan nan nan nan nan nan 246 nan nan nan 245 245 247 251 254 254 253 251 250 250 250 251 253 256 256 256
nan nan nan nan nan nan nan nan nan nan nan nan nan nan nan nan nan nan nan nan nan nan nan nan nan nan nan nan nan nan nan nan nan nan nan nan nan nan nan nan nan nan nan nan nan nan nan nan nan nan nan nan nan nan nan nan nan 248 248 246 242 240 243 241 242 244 245 245 244 244 nan 247 250 253 254 254 253 251 249 nan nan nan 246 253 254
nan nan nan nan nan nan nan nan nan nan nan nan nan nan nan nan nan nan nan nan nan nan nan nan nan nan nan nan nan nan nan nan nan nan nan nan nan nan nan nan nan nan nan nan nan nan nan nan nan nan nan nan nan nan nan nan 245 247 249 248 244 240 238 240 240 240 242 243 243 nan nan nan nan nan nan nan nan nan nan nan nan nan nan nan 248
nan nan nan nan nan nan nan nan nan nan nan nan nan nan nan nan nan nan nan nan nan nan nan nan nan nan nan nan nan nan nan 234 234 234 234 234 234 234 234 nan nan nan nan nan nan nan nan nan nan nan nan nan nan 239 241 241 241 242 244 244 244 nan nan 235 239 240 nan nan nan nan nan nan nan nan nan nan nan nan nan nan nan nan nan nan nan